EWG3PV LEPA-EDDL

Flight info

Callsign EWG3PV
Flight time N/A
Altitude 36000
Route MEROS DCT LAPIT DCT CHELY DCT LUMAS DCT NEVIX DCT ODIXU DCT MAXIR DCT LUSOL DCT BODRU DCT OKTET DCT IRMAR DCT KINES DCT VANAS DCT MOBLO DCT UBIMA DCT GILIR DCT PENDU DCT IXILU DCT GIVOR/N0418F320 DCT SORAL DCT IBERA DCT DIK N853 ARCKY T853 NVO T857 BIKMU
Aircraft A321/M-SDE2E3FGIJ1LORWXY/HB1

Departure

Time N/A
Airport Palma de Mallorca Airport (LEPA)

Arrival

Time 2026-05-05 09:33
Airport Düsseldorf Airport (EDDL)
Time Latitude Longitude Altitude Speed Heading
2026-05-05 08:28 44.57543 6.63265 35987 ft 488 kts 24°
2026-05-05 08:28 44.60574 6.65386 35988 ft 487 kts 24°
2026-05-05 08:29 44.66645 6.69639 35987 ft 487 kts 24°
2026-05-05 08:30 44.75785 6.76002 35975 ft 486 kts 20°
2026-05-05 08:30 44.82234 6.78483 35991 ft 478 kts
2026-05-05 08:31 44.88820 6.78466 35986 ft 473 kts 353°
2026-05-05 08:31 44.95403 6.78008 35994 ft 474 kts 353°
2026-05-05 08:32 45.01999 6.77584 35996 ft 474 kts 353°
2026-05-05 08:32 45.08087 6.77197 35995 ft 475 kts 353°
2026-05-05 08:33 45.13359 6.76854 35987 ft 475 kts 353°
2026-05-05 08:34 45.19963 6.76417 35980 ft 475 kts 354°
2026-05-05 08:34 45.26570 6.75977 35964 ft 476 kts 353°
2026-05-05 08:35 45.32067 6.75601 35957 ft 476 kts 353°
2026-05-05 08:35 45.38718 6.75149 35950 ft 476 kts 354°
2026-05-05 08:36 45.45326 6.74706 35930 ft 475 kts 354°
2026-05-05 08:36 45.51949 6.74266 35931 ft 476 kts 354°
2026-05-05 08:37 45.58567 6.73805 35932 ft 476 kts 354°
2026-05-05 08:37 45.65195 6.73353 35935 ft 477 kts 354°
2026-05-05 08:38 45.71819 6.72902 35942 ft 477 kts 354°
2026-05-05 08:38 45.78449 6.72448 35937 ft 477 kts 354°
2026-05-05 08:39 45.85080 6.71982 35939 ft 477 kts 354°
2026-05-05 08:39 45.91713 6.71536 35938 ft 477 kts 354°
2026-05-05 08:40 45.98344 6.71095 35932 ft 477 kts 354°
2026-05-05 08:40 46.04977 6.70641 35923 ft 478 kts 354°
2026-05-05 08:41 46.11600 6.70042 35927 ft 475 kts 348°
2026-05-05 08:41 46.17917 6.67569 35915 ft 470 kts 338°
2026-05-05 08:42 46.24121 6.64541 35901 ft 471 kts 338°
2026-05-05 08:42 46.30328 6.61517 35915 ft 470 kts 338°
2026-05-05 08:43 46.36532 6.58490 35922 ft 470 kts 338°
2026-05-05 08:43 46.42781 6.55440 35925 ft 471 kts 338°
2026-05-05 08:44 46.48983 6.52402 35927 ft 470 kts 338°
2026-05-05 08:44 46.55191 6.49356 35928 ft 471 kts 338°
2026-05-05 08:45 46.61392 6.46304 35920 ft 471 kts 338°
2026-05-05 08:45 46.67596 6.43225 35919 ft 471 kts 338°
2026-05-05 08:46 46.73801 6.40142 35913 ft 471 kts 338°
2026-05-05 08:46 46.80011 6.37065 35906 ft 471 kts 338°
2026-05-05 08:47 46.86220 6.33983 35901 ft 471 kts 338°
2026-05-05 08:47 46.92434 6.30882 35898 ft 472 kts 338°
2026-05-05 08:48 46.98640 6.27774 35895 ft 472 kts 338°
2026-05-05 08:48 47.04857 6.24667 35895 ft 472 kts 338°
2026-05-05 08:49 47.10803 6.20712 35890 ft 469 kts 330°
2026-05-05 08:49 47.16657 6.16479 35895 ft 469 kts 330°
2026-05-05 08:50 47.22515 6.12247 35886 ft 469 kts 330°
2026-05-05 08:50 47.28422 6.07975 35888 ft 470 kts 330°
2026-05-05 08:51 47.34444 6.04363 35870 ft 474 kts 344°
2026-05-05 08:51 47.41062 6.03378 35863 ft 478 kts
2026-05-05 08:52 47.47715 6.03557 35867 ft 479 kts 360°
2026-05-05 08:52 47.54381 6.03710 35873 ft 479 kts 360°
2026-05-05 08:53 47.61052 6.03850 35881 ft 479 kts 360°
2026-05-05 08:53 47.67714 6.04001 35880 ft 479 kts 360°
2026-05-05 08:54 47.74367 6.04427 35878 ft 480 kts
2026-05-05 08:54 47.80873 6.06693 35880 ft 480 kts 14°
2026-05-05 08:55 47.87351 6.09148 35887 ft 481 kts 14°
2026-05-05 08:55 47.93830 6.11583 35889 ft 480 kts 14°
2026-05-05 08:56 48.00316 6.14017 35875 ft 480 kts 14°
2026-05-05 08:56 48.06795 6.16470 35877 ft 480 kts 14°
2026-05-05 08:57 48.13272 6.18943 35883 ft 480 kts 14°
2026-05-05 08:57 48.19754 6.21408 35881 ft 480 kts 14°
2026-05-05 08:58 48.26269 6.23888 35884 ft 480 kts 14°
2026-05-05 08:58 48.32753 6.26374 35903 ft 480 kts 14°
2026-05-05 08:59 48.39228 6.28850 35884 ft 480 kts 14°
2026-05-05 08:59 48.45713 6.31337 35891 ft 480 kts 14°
2026-05-05 09:00 48.52180 6.33831 35894 ft 480 kts 14°
2026-05-05 09:00 48.58651 6.36347 35894 ft 480 kts 14°
2026-05-05 09:01 48.65127 6.38800 35891 ft 480 kts
2026-05-05 09:01 48.71758 6.39736 35890 ft 478 kts
2026-05-05 09:02 48.78399 6.40390 35894 ft 478 kts
2026-05-05 09:02 48.85033 6.41066 35897 ft 478 kts
2026-05-05 09:03 48.91661 6.41753 35898 ft 477 kts
2026-05-05 09:03 48.98286 6.42437 35897 ft 477 kts
2026-05-05 09:04 49.04917 6.43113 35894 ft 478 kts
2026-05-05 09:04 49.11538 6.43262 35887 ft 475 kts 351°
2026-05-05 09:05 49.17948 6.41059 35874 ft 472 kts 341°
2026-05-05 09:05 49.24285 6.38448 35878 ft 472 kts 342°
2026-05-05 09:06 49.30673 6.35841 35880 ft 472 kts 342°
2026-05-05 09:06 49.37011 6.33237 35886 ft 471 kts 341°
2026-05-05 09:07 49.43342 6.30609 35880 ft 471 kts 341°
2026-05-05 09:07 49.48597 6.28416 35878 ft 471 kts 341°
2026-05-05 09:08 49.54928 6.25793 35880 ft 471 kts 341°
2026-05-05 09:08 49.61261 6.23219 35879 ft 471 kts 341°
2026-05-05 09:09 49.67590 6.20636 35883 ft 470 kts 341°
2026-05-05 09:09 49.73918 6.18037 35852 ft 470 kts 341°
2026-05-05 09:09 49.77075 6.16735 35505 ft 469 kts 341°
2026-05-05 09:10 49.80219 6.15430 34984 ft 467 kts 341°
2026-05-05 09:10 49.83349 6.14129 34532 ft 464 kts 341°
2026-05-05 09:10 49.86520 6.13202 34094 ft 465 kts 350°
2026-05-05 09:10 49.89755 6.12998 33615 ft 466 kts 357°
2026-05-05 09:11 49.93026 6.13053 33128 ft 461 kts 357°
2026-05-05 09:11 49.96221 6.13080 32677 ft 456 kts 357°
2026-05-05 09:11 49.99377 6.13090 32229 ft 451 kts 357°
2026-05-05 09:11 50.02496 6.13092 31781 ft 446 kts 357°
2026-05-05 09:12 50.05581 6.13090 31351 ft 440 kts 357°
2026-05-05 09:12 50.08625 6.13100 30933 ft 436 kts 358°
2026-05-05 09:12 50.11642 6.13120 30502 ft 431 kts 358°
2026-05-05 09:12 50.14626 6.13141 30090 ft 426 kts 358°
2026-05-05 09:13 50.17574 6.13170 29623 ft 422 kts 358°
2026-05-05 09:13 50.20494 6.13198 29128 ft 418 kts 358°
2026-05-05 09:13 50.23385 6.13215 28614 ft 415 kts 358°
2026-05-05 09:13 50.26259 6.13326 28116 ft 412 kts
2026-05-05 09:14 50.29079 6.14081 27625 ft 410 kts 14°
2026-05-05 09:14 50.31758 6.15530 27146 ft 407 kts 24°
2026-05-05 09:14 50.34235 6.17627 26687 ft 403 kts 34°
2026-05-05 09:14 50.36568 6.20036 26209 ft 400 kts 34°
2026-05-05 09:15 50.38885 6.22422 25760 ft 397 kts 34°
2026-05-05 09:15 50.41189 6.24789 25316 ft 394 kts 34°
2026-05-05 09:15 50.43475 6.27134 24881 ft 391 kts 34°
2026-05-05 09:15 50.45738 6.29465 24464 ft 388 kts 34°
2026-05-05 09:16 50.47980 6.31780 24048 ft 384 kts 34°
2026-05-05 09:16 50.50211 6.34067 23637 ft 381 kts 33°
2026-05-05 09:16 50.52457 6.36233 23180 ft 378 kts 32°
2026-05-05 09:16 50.54720 6.38307 22681 ft 375 kts 31°
2026-05-05 09:17 50.56976 6.40329 22215 ft 371 kts 30°
2026-05-05 09:17 50.59209 6.42326 21751 ft 368 kts 30°
2026-05-05 09:17 50.61421 6.44322 21289 ft 364 kts 31°
2026-05-05 09:17 50.63633 6.46344 20838 ft 361 kts 31°
2026-05-05 09:18 50.65791 6.48335 20385 ft 359 kts 31°
2026-05-05 09:18 50.67937 6.50324 19940 ft 356 kts 31°
2026-05-05 09:18 50.70060 6.52295 19503 ft 353 kts 31°
2026-05-05 09:18 50.72169 6.54251 19063 ft 350 kts 31°
2026-05-05 09:19 50.74265 6.56195 18629 ft 348 kts 31°
2026-05-05 09:19 50.76351 6.58131 17960 ft 352 kts 31°
2026-05-05 09:19 50.78476 6.60108 17265 ft 356 kts 31°
2026-05-05 09:19 50.80623 6.62080 16550 ft 358 kts 27°
2026-05-05 09:20 50.82928 6.63568 15904 ft 360 kts 16°
2026-05-05 09:20 50.85370 6.64331 15342 ft 358 kts
2026-05-05 09:20 50.87834 6.64840 14806 ft 355 kts
2026-05-05 09:20 50.90273 6.65353 14282 ft 353 kts
2026-05-05 09:21 50.92701 6.65870 13789 ft 350 kts
2026-05-05 09:21 50.95112 6.66386 13274 ft 348 kts
2026-05-05 09:21 50.97489 6.66896 12838 ft 344 kts
2026-05-05 09:21 50.99851 6.67405 12328 ft 341 kts
2026-05-05 09:22 51.02198 6.67855 11822 ft 338 kts
2026-05-05 09:22 51.04537 6.67771 11358 ft 335 kts 357°
2026-05-05 09:22 51.06855 6.67579 10871 ft 332 kts 357°
2026-05-05 09:22 51.09147 6.67534 10500 ft 325 kts
2026-05-05 09:23 51.11218 6.68639 10378 ft 308 kts 32°
2026-05-05 09:23 51.12774 6.70843 10176 ft 295 kts 50°
2026-05-05 09:23 51.14077 6.73337 9841 ft 291 kts 52°
2026-05-05 09:23 51.15344 6.75840 9440 ft 289 kts 52°
2026-05-05 09:24 51.16599 6.78333 9046 ft 288 kts 52°
2026-05-05 09:24 51.17848 6.80820 8748 ft 286 kts 52°
2026-05-05 09:24 51.19088 6.83288 8373 ft 285 kts 52°
2026-05-05 09:24 51.20341 6.85785 7983 ft 284 kts 52°
2026-05-05 09:25 51.21571 6.88236 7582 ft 283 kts 52°
2026-05-05 09:25 51.22799 6.90683 7209 ft 282 kts 52°
2026-05-05 09:25 51.24004 6.93086 6858 ft 280 kts 52°
2026-05-05 09:25 51.25235 6.95539 6502 ft 279 kts 52°
2026-05-05 09:26 51.26446 6.97950 6144 ft 277 kts 52°
2026-05-05 09:26 51.27651 7.00353 5771 ft 276 kts 53°
2026-05-05 09:26 51.28846 7.02741 5443 ft 275 kts 52°
2026-05-05 09:26 51.30037 7.05119 5109 ft 273 kts 52°
2026-05-05 09:27 51.31221 7.07486 4748 ft 272 kts 52°
2026-05-05 09:27 51.32410 7.09818 4379 ft 270 kts 47°
2026-05-05 09:27 51.33964 7.11434 4057 ft 266 kts 17°
2026-05-05 09:27 51.35751 7.11621 3933 ft 254 kts 347°
2026-05-05 09:28 51.37280 7.10421 3799 ft 241 kts 315°
2026-05-05 09:28 51.38338 7.08426 3599 ft 232 kts 305°
2026-05-05 09:28 51.39208 7.06278 3311 ft 228 kts 296°
2026-05-05 09:28 51.39718 7.03905 3063 ft 225 kts 277°
2026-05-05 09:29 51.39720 7.01422 3006 ft 217 kts 259°
2026-05-05 09:29 51.39265 6.99218 3003 ft 208 kts 241°
2026-05-05 09:29 51.38478 6.97378 2994 ft 191 kts 232°
2026-05-05 09:29 51.37703 6.95738 2833 ft 180 kts 232°
2026-05-05 09:30 51.36965 6.94176 2621 ft 173 kts 232°
2026-05-05 09:30 51.36251 6.92666 2404 ft 168 kts 232°
2026-05-05 09:30 51.35535 6.91151 2194 ft 171 kts 232°
2026-05-05 09:30 51.34822 6.89645 1969 ft 169 kts 232°
2026-05-05 09:31 51.34118 6.88160 1803 ft 165 kts 233°
2026-05-05 09:31 51.33443 6.86736 1570 ft 155 kts 232°
2026-05-05 09:31 51.32807 6.85402 1297 ft 148 kts 233°
2026-05-05 09:31 51.32177 6.84069 1064 ft 150 kts 232°
2026-05-05 09:32 51.31553 6.82763 882 ft 147 kts 236°
2026-05-05 09:32 51.30939 6.81463 681 ft 147 kts 235°
2026-05-05 09:32 51.30320 6.80160 500 ft 147 kts 237°
2026-05-05 09:32 51.29697 6.78854 276 ft 147 kts 236°
2026-05-05 09:33 51.29079 6.77550 121 ft 139 kts 237°
2026-05-05 09:33 51.28590 6.76506 115 ft 95 kts 231°
2026-05-05 09:33 51.28285 6.75874 116 ft 53 kts 233°
2026-05-05 09:33 51.28130 6.75556 115 ft 13 kts 223°
2026-05-05 09:34 51.28043 6.75500 114 ft 14 kts 173°
2026-05-05 09:34 51.27975 6.75541 115 ft 1 kts 153°
2026-05-05 09:34 51.27960 6.75553 117 ft 3 kts 152°
2026-05-05 09:34 51.27942 6.75590 117 ft 5 kts 110°
2026-05-05 09:35 51.27953 6.75643 118 ft 6 kts 56°
2026-05-05 09:35 51.27977 6.75699 116 ft 3 kts 54°
2026-05-05 09:35 51.27992 6.75731 114 ft 5 kts 53°
2026-05-05 09:36 51.28016 6.75781 114 ft 7 kts 53°
2026-05-05 09:36 51.28049 6.75849 115 ft 9 kts 52°
2026-05-05 09:36 51.28089 6.75935 117 ft 11 kts 53°
2026-05-05 09:36 51.28138 6.76037 116 ft 13 kts 52°
2026-05-05 09:37 51.28194 6.76151 117 ft 9 kts 52°
2026-05-05 09:37 51.28194 6.76244 116 ft 10 kts 134°
2026-05-05 09:37 51.28144 6.76326 117 ft 11 kts 97°
2026-05-05 09:37 51.28145 6.76362 115 ft 2 kts 84°
2026-05-05 09:38 51.28150 6.76400 114 ft 5 kts 78°
2026-05-05 09:38 51.28155 6.76461 118 ft 6 kts 89°
2026-05-05 09:38 51.28151 6.76538 117 ft 5 kts 96°
2026-05-05 09:38 51.28150 6.76549 116 ft 0 kts 96°